Location: Novel
(46.3692°N, 6.7863°E)
Time: 17:57:55
(UTC+00:00)

Daily predictions for brighter satellites

Satellite Brightness Start Highest point End
(mag) Time Altitude Azimuth Time Altitude Azimuth Time Altitude Azimuth
SPOT 3 Rocket 4.0 19:57:44 10° S 20:02:54 68° WSW 20:08:08 10° NNW
Cosmos 2237 4.4 19:58:20 10° S 20:03:54 56° ESE 20:09:31 10° NE
Cosmos 1455 2.3 20:08:27 10° N 20:12:16 62° E 20:16:06 10° SSE
Cosmos 1461 4.3 20:08:05 10° NW 20:12:31 40° WSW 20:16:55 10° S
Cosmos 1825 Rocket 4.1 20:11:42 10° SSE 20:15:50 40° E 20:20:01 10° NNE
ATLAS CENTAUR R/B 3.0 20:15:32 10° NNW 20:18:27 21° NE 20:21:18 10° E
Cosmos 1703 3.6 20:16:41 10° SSE 20:20:24 46° E 20:24:08 10° NNE
COSMOS 2428 3.8 20:16:53 10° SSE 20:21:18 24° ESE 20:25:45 10° NE
Cosmos 1812 Rocket 3.8 20:18:12 10° NNW 20:22:32 73° W 20:26:50 10° S
Cosmos 1844 4.0 20:18:19 10° NNW 20:24:05 62° ENE 20:29:32 11° SE
Cosmos 2322 4.1 20:19:40 10° S 20:25:00 42° ESE 20:30:22 10° NE
Cosmos 1602 Rocket 4.2 20:24:51 10° SSW 20:29:12 59° WNW 20:33:37 10° N
Cosmos 1709 Rocket 4.2 20:25:50 10° SSE 20:31:56 55° E 20:38:08 10° NNE
Cosmos 2263 Rocket 4.2 20:27:51 10° NW 20:32:03 23° W 20:36:16 10° SSW
Nadezhda 1 Rocket 4.2 20:26:45 10° N 20:33:11 79° W 20:39:32 10° S
MetOp-B 4.3 20:28:42 10° S 20:34:03 79° WSW 20:39:28 10° NNW
Atlas Centaur 2 3.8 20:30:50 10° SW 20:34:57 19° S 20:38:47 12° SE
Cosmos 2237 Rocket 4.1 20:33:19 10° ESE 20:35:20 12° E 20:37:21 10° ENE
Terra 3.0 20:31:40 11° SE 20:35:34 30° ENE 20:39:43 10° N
CARTOSAT-1 4.2 20:32:57 12° SE 20:36:37 43° ENE 20:40:43 10° N
Cosmos 2333 4.4 20:31:21 10° S 20:36:45 50° ESE 20:42:15 10° NE
Cosmos 2219 Rocket 2.8 20:32:13 10° S 20:37:13 35° ESE 20:42:16 10° NE
Cosmos 2360 Rocket 2.3 20:33:22 10° SSW 20:39:01 85° WNW 20:44:44 10° NNE
IGS 5A 3.4 20:35:36 10° SSE 20:39:45 89° ENE 20:43:56 10° NNW
Cosmos 2333 Rocket 2.5 20:41:35 10° S 20:46:57 45° ESE 20:52:22 10° NE
ATLAS 2AS CENTAUR R/B 4.1 20:44:02 10° NNW 20:50:59 34° NNE 20:57:27 10° E
Cosmos 1315 Rocket 3.7 20:47:40 10° N 20:51:31 38° ENE 20:54:13 17° SE
Resurs 01 Rocket 3.3 20:47:48 10° SSW 20:51:42 30° W 20:55:36 10° NNW
Cosmos 1818 3.9 20:48:56 10° SW 20:54:21 73° NW 20:59:50 10° NNE
Cosmos-2242 3.2 20:50:44 10° NNW 20:55:05 74° W 20:59:06 12° S
Cosmos 773 Rocket 4.0 20:51:45 10° S 20:57:00 70° ESE 21:02:17 10° NNE
SL-16 R/B 4.2 20:53:13 10° WSW 20:58:15 32° NW 21:03:19 10° NNE
Cosmos 2221 3.7 20:56:07 10° NNE 20:59:58 29° ENE 21:02:29 17° ESE
ERS-1 Rocket 3.0 20:56:51 15° SSE 21:01:01 80° ENE 21:06:05 10° NNW
GEOS 3 Rocket 3.8 20:58:29 10° NE 21:03:55 86° NW 21:09:19 10° SW
USA 215 3.2 21:00:48 10° ENE 21:07:19 63° SE 21:13:46 10° SW
Cosmos 1892 4.4 21:07:01 16° ESE 21:08:06 18° E 21:10:43 10° NE
Cosmos 2278 Rocket 3.1 21:03:37 10° NNW 21:08:57 40° NE 21:13:09 16° ESE
ATLAS 5 CENTAUR R/B 2.3 21:07:00 10° SW 21:11:06 56° NW 21:15:44 10° NNE
USA 245 4.5 21:08:35 11° SSW 21:11:28 34° W 21:15:11 10° NNW
Meteor 1-11 4.2 21:05:59 10° S 21:11:36 85° E 21:17:20 10° NNE
Cosmos 1844 Rocket 3.4 21:08:27 10° NW 21:13:46 47° WSW 21:18:16 14° S
Cosmos 1400 Rocket 3.8 21:10:36 10° NNW 21:14:22 42° W 21:17:41 12° SSW
Gblst 52 Del rocket 4.4 21:08:55 10° WNW 21:14:37 77° NNE 21:20:33 12° ESE
SPOT 5 2.9 21:13:56 18° SSE 21:17:44 84° WSW 21:22:36 10° NNW
Lacrosse 5 rocket 4.1 21:17:09 10° NW 21:20:09 19° N 21:23:02 10° NE
USA 81 4.1 21:19:52 13° S 21:24:32 85° W 21:29:51 10° N
Cosmos 2058 3.9 21:25:00 24° SE 21:26:27 30° E 21:30:06 10° NNE
BREEZE M DEB (TANK) 2.3 21:25:31 10° W 21:27:39 34° SSW 21:27:39 34° SSW
Cosmos 2181 Rocket 4.1 21:23:00 10° NNW 21:29:21 76° W 21:34:15 17° S
Cosmos 1408 4.3 21:29:06 18° E 21:29:34 18° E 21:32:04 10° NE
Cosmos 2074 Rocket 4.0 21:29:16 20° S 21:33:42 65° E 21:39:50 10° NNE
TSX-5 4.3 21:32:18 10° NNW 21:35:40 46° ENE 21:37:36 25° ESE
Cosmos 1076 Rocket 4.3 21:36:08 27° SE 21:37:38 36° E 21:41:34 10° NNE
Cosmos 1680 Rocket 4.2 21:35:42 25° SSE 21:37:56 36° ESE 21:42:45 10° NE
USA 267 3.4 21:34:04 14° ESE 21:39:49 74° NNE 21:46:23 10° NW
Cosmos 2084 3.6 21:41:43 10° NW 21:46:10 70° SW 21:48:05 32° SSE
Cosmos 1842 Rocket 3.5 21:42:31 10° NNW 21:46:54 80° W 21:49:02 29° S
JB-3 4.1 21:44:32 10° NNE 21:48:23 74° ESE 21:49:57 34° S
MTI 3.6 21:49:15 10° NNE 21:52:21 86° W 21:53:10 45° SSW
Cosmos 923 Rocket 4.0 21:52:19 25° S 21:55:20 65° ESE 22:00:36 10° NNE
ATLAS CENTAUR R/B 1.6 21:54:00 10° NW 21:57:32 45° WSW 21:58:26 36° SSW
Cosmos 1825 3.3 21:58:08 26° ESE 21:58:35 27° E 22:01:50 10° NNE
ALOS 2 4.2 21:58:03 18° ESE 22:00:01 24° ENE 22:03:33 10° NNE
Cosmos 1980 3.7 21:56:55 25° S 22:00:09 61° ESE 22:05:43 10° NNE
Cosmos 967 Rocket 4.5 21:55:54 10° SSW 22:02:22 80° ESE 22:08:52 10° NE
COSMOS 2428 3.3 21:59:34 10° SW 22:05:09 58° WNW 22:10:46 10° NNE
Cosmos 1869 3.8 22:03:55 10° NNW 22:07:49 54° W 22:09:22 32° SSW
NOSS 0 Rocket 3.9 22:07:31 16° SSW 22:12:30 87° ESE 22:18:43 10° NNE
Terra 3.0 22:10:34 20° SSW 22:13:14 34° W 22:17:35 10° NNW
Cosmos 1624 Rocket 4.4 22:09:23 10° NNW 22:14:33 54° ENE 22:16:57 29° SE
NOSS 3-4 (A) 3.9 22:07:50 10° NW 22:14:49 78° NE 22:19:47 24° SE
NOSS 3-4 (C) 3.9 22:07:57 10° NW 22:14:56 78° NE 22:19:55 24° SE
Cosmos 1610 Rocket 4.5 22:11:20 26° S 22:15:05 85° E 22:21:29 10° N
Cosmos 2237 Rocket 2.1 22:14:58 25° SSW 22:18:24 78° ESE 22:24:08 10° NNE
Genesis I 3.2 22:18:36 52° SSE 22:19:06 57° ESE 22:22:56 10° NE
Cosmos 2344 3.6 22:16:02 22° S 22:21:01 58° ESE 22:28:44 10° NE
Cosmos 2219 Rocket 3.4 22:15:52 10° SW 22:21:06 40° NW 22:26:23 10° NNE
BREEZE-M R/B 4.5 22:13:27 10° WNW 22:21:50 37° SW 22:23:37 29° SSW
Elektron 1 4.2 22:21:21 37° SW 22:22:35 87° SE 22:27:46 10° NE
Atlas Centaur 2 4.2 22:18:59 10° SW 22:21:21 16° SSW 22:21:21 16° SSW
DELTA 2 R/B (1) 4.0 22:24:10 10° SW 22:29:18 38° S 22:30:03 36° SSE
Thor Agena Rocket 3.4 22:25:57 10° NNE 22:31:06 85° ESE 22:33:18 35° SSW
Cosmos 2333 Rocket 3.8 22:26:15 10° WSW 22:31:22 33° NW 22:36:33 10° NNE
Cosmos 2221 4.1 22:33:43 10° NNW 22:37:27 28° W 22:39:20 20° SW
BREEZE-M DEB (TANK) 1.5 22:37:32 10° WNW 22:41:15 68° NNE 22:41:22 67° NE
Iridium 2 3.9 22:37:55 10° N 22:41:43 63° W 22:42:26 50° SW
Cosmos 1371 Rocket 4.0 22:37:03 10° NNW 22:42:20 81° WSW 22:44:15 41° SSE
ATLAS 2AS CENTAUR R/B 2.8 22:35:12 10° NW 22:42:48 82° SW 22:46:25 32° SSE
Cosmos 1892 4.0 22:41:59 24° WSW 22:43:32 34° WNW 22:47:01 10° N
EO 1 Del DPAF 3.3 22:40:24 10° N 22:44:10 72° WNW 22:44:59 51° SW
Cosmos 1766 Rocket 3.8 22:44:24 46° SE 22:45:15 54° E 22:49:34 10° NNE
MOS 1-B Rocket 4.4 22:38:16 10° NNE 22:46:05 89° WNW 22:49:56 28° SSW
Okean 3 Rocket 3.6 22:47:02 50° SSE 22:48:03 68° E 22:52:29 10° NNE
Aureole 2 Rocket 2.6 22:46:33 10° NNW 22:48:59 52° NNE 22:48:59 52° NNE
Cosmos 1328 Rocket 4.0 22:45:13 10° N 22:49:25 49° ENE 22:50:25 40° ESE
USA 215 4.0 22:43:55 10° NE 22:50:16 54° NNW 22:56:36 10° W
Cosmos 2112 Rocket 4.3 22:48:24 26° SW 22:51:25 67° WNW 22:56:47 10° NNE
Cosmos 1606 2.8 22:47:54 10° N 22:51:47 65° E 22:52:19 57° SE
Cosmos 2278 Rocket 3.1 22:47:50 10° NW 22:52:59 36° WSW 22:54:59 28° SW
Cosmos 2218 Rocket 4.2 22:50:54 34° SSE 22:53:32 58° E 22:59:42 10° NNE
Cosmos 2297 3.8 22:48:55 10° NNW 22:54:41 73° ENE 22:57:11 35° SE
Cosmos 158 Rocket 4.4 22:52:56 24° SW 22:55:40 54° WNW 23:00:30 10° NNE
Cosmos 1420 Rocket 4.2 22:53:16 10° NNW 22:58:33 67° ENE 23:00:36 37° SE
Cosmos 2366 rocket 4.2 22:56:35 35° SSE 22:59:11 61° E 23:05:27 10° NNE
Lacrosse 5 rocket 3.6 22:57:07 10° NW 23:00:27 24° NNE 23:03:37 10° ENE
Spot 4 4.4 22:59:07 36° SW 23:00:34 47° W 23:05:11 10° NNW
Cosmos 1633 4.1 23:01:11 24° E 23:01:11 24° E 23:04:07 10° NE
Cosmos 1943 Rocket 3.1 22:55:50 10° NNW 23:01:14 42° NE 23:04:40 21° ESE
SL-16 R/B 2.2 23:00:46 40° S 23:02:45 66° ESE 23:08:23 10° NNE
Cosmos 1408 4.0 23:03:24 25° WSW 23:04:22 29° WNW 23:07:33 10° NNW
Cosmos 2056 Rocket 3.8 23:00:55 10° NNW 23:06:16 60° WSW 23:07:58 41° SSW
Cosmos 1959 Rocket 4.5 23:06:20 38° S 23:08:48 73° E 23:15:00 10° NNE
Cosmos 2341 Rocket 4.2 23:11:46 31° SSW 23:14:52 65° W 23:21:04 10° N
Cosmos 332 Rocket 4.0 23:15:08 10° NNW 23:19:55 65° ENE 23:21:28 41° SE
Meteor 2-3 Rocket 3.7 23:21:01 42° S 23:22:59 75° E 23:28:42 10° NNE
USA 267 3.8 23:21:24 33° SSW 23:23:08 39° SW 23:29:13 10° WNW
IRIDIUM 104 4.3 23:23:26 43° SSW 23:25:10 74° W 23:30:24 10° N
Cosmos 2151 4.1 23:23:52 29° WSW 23:25:16 37° WNW 23:29:15 10° N
Helios 1A 2.9 23:24:53 59° SSE 23:25:38 81° ENE 23:29:49 10° NNW
Cosmos 405 3.5 23:25:29 10° N 23:28:56 47° ENE 23:29:08 47° E
Meteor 1-26 Rocket 4.3 23:27:03 10° NNW 23:33:06 86° W 23:35:20 41° S
Cosmos 1452 Rocket 3.4 23:28:04 10° NNW 23:33:22 88° ENE 23:35:06 44° SSE
SL-8 Rocket 4.2 23:30:59 32° SSW 23:33:50 62° WNW 23:39:57 10° N
Cosmos 1825 4.0 23:32:56 19° W 23:34:05 22° WNW 23:37:08 10° NNW
CZ-4C R/B 3.7 23:27:22 10° NNW 23:34:09 50° NE 23:42:02 10° ESE
Cosmos 1340 2.7 23:34:23 63° WSW 23:34:42 68° WNW 23:38:28 10° N
COSMOS 2455 2.9 23:29:11 10° NNW 23:35:15 77° NE 23:38:24 30° SE
PSLV R/B 4.2 23:32:01 10° NNE 23:36:01 40° E 23:36:34 38° ESE
ALOS 2 3.4 23:35:27 35° WSW 23:36:09 37° W 23:40:16 10° NNW
Cosmos 1408 Rocket 3.6 23:35:56 54° SW 23:36:50 73° W 23:41:15 10° N
Cosmos 1933 3.7 23:33:56 10° NNW 23:37:48 48° W 23:38:13 46° WSW
Cosmos 1151 Rocket 3.5 23:35:13 10° NNW 23:39:22 46° W 23:40:03 42° WSW
APEX 3.9 23:42:40 10° NNW 23:44:21 33° NW 23:44:21 33° NW
Cosmos 44 3.6 23:43:38 30° WSW 23:45:29 52° NW 23:49:51 10° NNE
Cosmos 1727 Rocket 4.0 23:39:16 10° N 23:45:32 81° W 23:48:04 39° S
Cosmos 1500 Rocket 3.6 23:44:49 55° SSE 23:45:37 69° E 23:50:00 10° NNE
Cosmos 2369 Rocket 2.5 23:40:17 10° NNW 23:45:52 63° ENE 23:48:49 28° SE
Resurs 1-4 Rocket 4.3 23:43:41 10° ENE 23:46:13 13° E 23:48:42 10° ESE
SL-4 R/B 3.9 23:48:59 10° NW 23:48:59 10° NW 23:49:02 10° NW
GP-B 4.2 23:43:36 10° NNW 23:47:38 35° W 23:48:50 29° WSW
ISS -0.9 23:51:00 10° E 23:51:00 10° E 23:51:00 10° E
Cosmos 371 Rocket 3.6 23:44:51 10° NNW 23:49:33 50° WSW 23:50:25 44° SW
SeaSat 1 4.2 23:47:00 10° ENE 23:50:25 18° ESE 23:51:20 18° ESE
Helios 1B rocket 2.7 23:50:47 10° NNE 23:54:50 51° E 23:55:23 47° SE
CREW DRAGON DEMO-1 DEB 4.2 23:54:49 25° WNW 23:56:06 38° NNW 23:59:02 10° ENE
